Terminal Aerodrome Forecast
Issued by NWS

Home | Current Version | Previous Version | Graphics & Text | Print | Product List | Glossary On
Versions: 1 2 3 4 5 6 7 8 9 10 11 12 13 14 15 16 17 18
000
FTUS43 KBIS 261700
TAFMOT
TAF
KMOT 261726Z 2618/2718 07007KT P6SM BKN020 OVC035
     FM262100 10007KT P6SM BKN040
     FM271000 14010KT 4SM -SN BR BKN015 OVC025
      TEMPO 2712/2716 1SM -SN BR SCT006 OVC010=

USA.gov is the U.S. government's official web portal to all federal, state and local government web resources and services.